Location: Nitra
(48.3167°N, 18.0833°E)
Time: 05:52:20
(UTC+01:00)

ISS - Visible Passes

Search period start: 23 February 2018 00:00
Search period end: 05 March 2018 00:00
Orbit: 402 x 407 km, 51.6° (Epoch: 23 February)

Date Brightness Start Highest point End Pass type
(mag) Time Alt. Az. Time Alt. Az. Time Alt. Az.
27 Feb -1.1 05:33:26 10° S 05:35:46 18° SE 05:38:08 10° E visible
28 Feb -0.8 04:42:48 10° SSE 04:43:44 11° SE 04:44:40 10° ESE visible
01 Mar -2.4 05:24:23 10° SSW 05:27:25 35° SE 05:30:26 10° ENE visible
02 Mar -1.7 04:34:05 18° S 04:35:15 22° SE 04:37:50 10° E visible
03 Mar -0.8 03:44:04 12° ESE 03:44:04 12° ESE 03:44:48 10° ESE visible
03 Mar -3.6 05:16:44 17° SW 05:19:06 67° SSE 05:22:22 10° ENE visible
04 Mar -3.0 04:26:36 41° SSE 04:26:50 41° SSE 04:29:57 10° ENE visible
